This demonstration page uses our WeatherBlox Daily Observations layout. Learn more.

Left ArrowRight Arrow

38.80484, -77.04692

Hourly Observations for October 1, 2021

Temp ( °F °C ) Dew Point ( °F °C ) Humidity (%) Winds ( mph kmh ) Pressure ( in mb ) Visibility ( mi km ) Precip ( " mm )
12:52 am 00:52 Mostly Clear 62 16.7 50 10 65 65 Calm 30.23 1024 10 16 0.00 0.00
1:52 am 01:52 Mostly Clear 59 15 51 10.6 75 75 Calm 30.24 1024 10 16 0.00 0.00
2:52 am 02:52 Mostly Cloudy 58 14.4 51 10.6 78 78 NNW 7 11 30.23 1024 10 16 0.00 0.00
3:52 am 03:52 Mostly Clear 57 13.9 50 10 78 78 NNW 8 13 30.23 1024 10 16 0.00 0.00
4:52 am 04:52 Mostly Clear 57 13.9 50 10 78 78 N 7 11 30.24 1024 10 16 0.00 0.00
5:52 am 05:52 Clear 57 13.9 47 8.3 69 69 N 9 15 30.27 1025 10 16 0.00 0.00
6:52 am 06:52 Mostly Clear 55 12.8 47 8.3 74 74 NNE 6 9 30.28 1025 10 16 0.00 0.00
7:52 am 07:52 Mostly Sunny 57 13.9 47 8.3 69 69 NNE 7 11 30.30 1026 10 16 0.00 0.00
8:52 am 08:52 Mostly Sunny 60 15.6 50 10 70 70 ENE 3 6 30.31 1026 10 16 0.00 0.00
9:52 am 09:52 Mostly Sunny 63 17.2 48 8.9 58 58 ENE 6 9 30.32 1027 10 16 0.00 0.00
10:52 am 10:52 Mostly Sunny 66 18.9 46 7.8 49 49 ENE 5 7 30.31 1027 10 16 0.00 0.00
11:52 am 11:52 Mostly Sunny 67 19.4 45 7.2 45 45 E 5 7 30.30 1026 10 16 0.00 0.00
12:52 pm 12:52 Mostly Sunny 69 20.6 46 7.8 44 44 E 6 9 30.29 1026 10 16 0.00 0.00
1:52 pm 13:52 Mostly Sunny 72 22.2 48 8.9 43 43 N 7 11 30.26 1025 10 16 0.00 0.00
2:52 pm 14:52 Mostly Sunny 72 22.2 48 8.9 43 43 NNE 6 9 30.24 1024 10 16 0.00 0.00
3:52 pm 15:52 Mostly Sunny 72 22.2 48 8.9 43 43 Calm 30.23 1024 10 16 0.00 0.00
4:52 pm 16:52 Mostly Sunny 73 22.8 48 8.9 41 41 NE 3 6 30.22 1024 10 16 0.00 0.00
5:52 pm 17:52 Mostly Sunny 70 21.1 51 10.6 51 51 S 8 13 30.22 1024 10 16 0.00 0.00
6:52 pm 18:52 Mostly Clear 69 20.6 51 10.6 53 53 S 6 9 30.23 1024 10 16 0.00 0.00
7:52 pm 19:52 Mostly Clear 68 20 54 12.2 61 61 Calm 30.24 1024 10 16 0.00 0.00
8:52 pm 20:52 Mostly Clear 66 18.9 53 11.7 63 63 Calm 30.25 1024 10 16 0.00 0.00
9:52 pm 21:52 Clear 64 17.8 53 11.7 68 68 Calm 30.25 1025 10 16 0.00 0.00
10:52 pm 22:52 Mostly Clear 63 17.2 54 12.2 73 73 Calm 30.25 1024 10 16 0.00 0.00
11:52 pm 23:52 Mostly Clear 61 16.1 54 12.2 78 78 Calm 30.25 1024 10 16 0.00 0.00

Powered by AerisWeather